![]() |
EMODnet Physics ERDDAP
Easier access to scientific data |
log in|
Brought to you by EMODnet Physics |
| Dataset Title: | NDBC - Collection of dew point temperature (DEWT) TimeSeries - IN SITU MultiPointTimeSeriesObservation
|
| Institution: | NDBC (Dataset ID: TS_DEWT_NDBC) |
| Information: | Summary
| License
| FGDC
| ISO 19115
| Metadata
| Background
| Subset
| Data Access Form
| Make a graph
|
| Name | Last modified | Size | Description | |
|---|---|---|---|---|
| Parent Directory | - | - | ||
| MZXC1_TS_DEWT_012015.nc | 15-Dec-2024 22:22 | 429279 | ||
| MZXC1_TS_DEWT_012016.nc | 15-Dec-2024 22:39 | 429280 | ||
| MZXC1_TS_DEWT_012017.nc | 15-Dec-2024 22:51 | 429279 | ||
| MZXC1_TS_DEWT_012018.nc | 15-Dec-2024 23:08 | 429273 | ||
| MZXC1_TS_DEWT_012019.nc | 16-Jan-2026 12:36 | 429444 | ||
| MZXC1_TS_DEWT_012025.nc | 16-Jan-2026 13:36 | 440074 | ||
| MZXC1_TS_DEWT_012026.nc | 02-Feb-2026 16:39 | 440105 | ||
| MZXC1_TS_DEWT_022015.nc | 15-Dec-2024 22:23 | 440037 | ||
| MZXC1_TS_DEWT_022016.nc | 15-Dec-2024 22:40 | 440145 | ||
| MZXC1_TS_DEWT_022017.nc | 15-Dec-2024 22:52 | 439270 | ||
| MZXC1_TS_DEWT_022018.nc | 15-Dec-2024 23:09 | 435857 | ||
| MZXC1_TS_DEWT_022019.nc | 16-Jan-2026 12:37 | 440164 | ||
| MZXC1_TS_DEWT_022025.nc | 16-Jan-2026 13:37 | 439445 | ||
| MZXC1_TS_DEWT_022026.nc | 01-Mar-2026 05:10 | 440147 | ||
| MZXC1_TS_DEWT_032014.nc | 15-Dec-2024 22:16 | 440147 | ||
| MZXC1_TS_DEWT_032015.nc | 15-Dec-2024 22:25 | 440099 | ||
| MZXC1_TS_DEWT_032016.nc | 15-Dec-2024 22:42 | 440098 | ||
| MZXC1_TS_DEWT_032017.nc | 15-Dec-2024 22:54 | 440139 | ||
| MZXC1_TS_DEWT_032018.nc | 15-Dec-2024 23:11 | 418795 | ||
| MZXC1_TS_DEWT_032019.nc | 16-Jan-2026 12:39 | 440155 | ||
| MZXC1_TS_DEWT_032025.nc | 16-Jan-2026 13:38 | 440162 | ||
| MZXC1_TS_DEWT_032026.nc | 25-Mar-2026 07:08 | 440038 | ||
| MZXC1_TS_DEWT_042014.nc | 15-Dec-2024 22:16 | 440076 | ||
| MZXC1_TS_DEWT_042015.nc | 15-Dec-2024 22:26 | 440071 | ||
| MZXC1_TS_DEWT_042016.nc | 15-Dec-2024 22:42 | 420640 | ||
| MZXC1_TS_DEWT_042017.nc | 15-Dec-2024 22:55 | 429615 | ||
| MZXC1_TS_DEWT_042018.nc | 15-Dec-2024 23:12 | 429605 | ||
| MZXC1_TS_DEWT_042019.nc | 16-Jan-2026 12:40 | 429285 | ||
| MZXC1_TS_DEWT_042025.nc | 16-Jan-2026 13:39 | 429608 | ||
| MZXC1_TS_DEWT_052014.nc | 15-Dec-2024 22:17 | 429602 | ||
| MZXC1_TS_DEWT_052015.nc | 15-Dec-2024 22:28 | 429601 | ||
| MZXC1_TS_DEWT_052016.nc | 15-Dec-2024 22:43 | 429609 | ||
| MZXC1_TS_DEWT_052017.nc | 15-Dec-2024 22:56 | 429609 | ||
| MZXC1_TS_DEWT_052018.nc | 15-Dec-2024 23:13 | 429827 | ||
| MZXC1_TS_DEWT_052019.nc | 16-Jan-2026 12:41 | 588162 | ||
| MZXC1_TS_DEWT_052025.nc | 16-Jan-2026 13:40 | 588164 | ||
| MZXC1_TS_DEWT_062014.nc | 15-Dec-2024 22:18 | 588083 | ||
| MZXC1_TS_DEWT_062015.nc | 15-Dec-2024 22:29 | 588162 | ||
| MZXC1_TS_DEWT_062016.nc | 15-Dec-2024 22:43 | 587824 | ||
| MZXC1_TS_DEWT_062017.nc | 15-Dec-2024 22:58 | 587988 | ||
| MZXC1_TS_DEWT_062018.nc | 15-Dec-2024 23:15 | 588197 | ||
| MZXC1_TS_DEWT_062019.nc | 16-Jan-2026 12:42 | 588167 | ||
| MZXC1_TS_DEWT_062025.nc | 16-Jan-2026 13:41 | 588183 | ||
| MZXC1_TS_DEWT_072014.nc | 15-Dec-2024 22:18 | 588199 | ||
| MZXC1_TS_DEWT_072015.nc | 15-Dec-2024 22:30 | 588164 | ||
| MZXC1_TS_DEWT_072016.nc | 15-Dec-2024 22:44 | 588159 | ||
| MZXC1_TS_DEWT_072017.nc | 15-Dec-2024 22:59 | 588128 | ||
| MZXC1_TS_DEWT_072018.nc | 15-Dec-2024 23:16 | 588160 | ||
| MZXC1_TS_DEWT_072020.nc | 16-Jan-2026 12:55 | 588208 | ||
| MZXC1_TS_DEWT_072025.nc | 16-Jan-2026 13:42 | 588201 | ||
| MZXC1_TS_DEWT_082014.nc | 15-Dec-2024 22:19 | 588090 | ||
| MZXC1_TS_DEWT_082015.nc | 15-Dec-2024 22:32 | 588106 | ||
| MZXC1_TS_DEWT_082016.nc | 15-Dec-2024 22:45 | 588162 | ||
| MZXC1_TS_DEWT_082017.nc | 15-Dec-2024 23:01 | 429282 | ||
| MZXC1_TS_DEWT_082025.nc | 16-Jan-2026 13:43 | 429281 | ||
| MZXC1_TS_DEWT_092014.nc | 15-Dec-2024 22:20 | 429288 | ||
| MZXC1_TS_DEWT_092015.nc | 15-Dec-2024 22:33 | 429283 | ||
| MZXC1_TS_DEWT_092016.nc | 15-Dec-2024 22:45 | 429276 | ||
| MZXC1_TS_DEWT_092017.nc | 15-Dec-2024 23:02 | 429284 | ||
| MZXC1_TS_DEWT_092018.nc | 15-Dec-2024 23:17 | 429284 | ||
| MZXC1_TS_DEWT_092019.nc | 16-Jan-2026 12:45 | 429250 | ||
| MZXC1_TS_DEWT_092025.nc | 16-Jan-2026 13:44 | 429279 | ||
| MZXC1_TS_DEWT_102014.nc | 15-Dec-2024 22:20 | 429481 | ||
| MZXC1_TS_DEWT_102015.nc | 15-Dec-2024 22:35 | 440139 | ||
| MZXC1_TS_DEWT_102016.nc | 15-Dec-2024 22:47 | 440076 | ||
| MZXC1_TS_DEWT_102017.nc | 15-Dec-2024 23:03 | 440049 | ||
| MZXC1_TS_DEWT_102019.nc | 16-Jan-2026 12:46 | 438127 | ||
| MZXC1_TS_DEWT_102024.nc | 16-Jan-2026 13:34 | 440125 | ||
| MZXC1_TS_DEWT_102025.nc | 16-Jan-2026 13:45 | 440161 | ||
| MZXC1_TS_DEWT_112014.nc | 15-Dec-2024 22:21 | 440146 | ||
| MZXC1_TS_DEWT_112015.nc | 15-Dec-2024 22:36 | 440144 | ||
| MZXC1_TS_DEWT_112016.nc | 15-Dec-2024 22:48 | 440145 | ||
| MZXC1_TS_DEWT_112017.nc | 15-Dec-2024 23:05 | 440148 | ||
| MZXC1_TS_DEWT_112018.nc | 16-Jan-2026 12:34 | 440154 | ||
| MZXC1_TS_DEWT_112019.nc | 16-Jan-2026 12:48 | 440167 | ||
| MZXC1_TS_DEWT_112022.nc | 16-Jan-2026 13:15 | 440145 | ||
| MZXC1_TS_DEWT_112024.nc | 16-Jan-2026 13:34 | 440139 | ||
| MZXC1_TS_DEWT_112025.nc | 16-Jan-2026 13:46 | 440097 | ||
| MZXC1_TS_DEWT_122014.nc | 15-Dec-2024 22:21 | 440145 | ||
| MZXC1_TS_DEWT_122015.nc | 15-Dec-2024 22:37 | 440074 | ||
| MZXC1_TS_DEWT_122016.nc | 15-Dec-2024 22:49 | 440056 | ||
| MZXC1_TS_DEWT_122017.nc | 15-Dec-2024 23:06 | 440119 | ||
| MZXC1_TS_DEWT_122018.nc | 16-Jan-2026 12:35 | 429610 | ||
| MZXC1_TS_DEWT_122019.nc | 16-Jan-2026 12:49 | 429603 | ||
| MZXC1_TS_DEWT_122024.nc | 16-Jan-2026 13:35 | 429602 | ||
| MZXC1_TS_DEWT_122025.nc | 16-Jan-2026 13:46 | 429613 | ||